Regional Weather Roundup
Issued by NWS

Home | Current Version | Previous Version | Graphics & Text | Print | Product List | Glossary On
Versions: 1 2 3 4 5 6 7 8 9 10 11 12 13 14 15 16 17 18 19 20 21 22 23 24 25 26 27 28 29 30 31 32 33 34 35 36 37 38 39 40 41 42 43 44 45 46 47 48 49 50
933
ASUS43 KIND 240809
RWRIN

WEATHER ROUNDUP FOR INDIANA
NATIONAL WEATHER SERVICE INDIANAPOLIS IN
300 AM EST FRI FEB 24 2017

NOTE: "FAIR" INDICATES FEW OR NO CLOUDS BELOW 12,000 FEET WITH NO
SIGNIFICANT WEATHER AND/OR OBSTRUCTIONS TO VISIBILITY.

* - STATION DOES NOT REPORT WEATHER SUCH AS PRECIPITATION OR FOG.

+ - STATION NOT QUALITY CONTROLLED BY THE NATIONAL WEATHER SERVICE.
    USE DATA WITH CAUTION...ESPECIALLY DEWPOINT AND RELATIVE
    HUMIDITY OBSERVATIONS.

INZ001>003-010>013-019-020-240900-
NORTHWEST INDIANA

CITY           SKY/WX    TMP DP  RH WIND       PRES   REMARKS
GARY /AIRPORT/ CLOUDY    41  41  98 N7        29.59F FOG
KNOX *+        CLOUDY    54  41  62 CALM      29.60R
LA PORTE +     CLOUDY    48  48  98 SE9       29.59F
MICHIGAN CITY+ LGT RAIN  50  50 100 S5        29.56F
MONTICELLO +   CLOUDY    57  53  86 SE9       29.59F
RENSSELAER +   CLOUDY    57  54  88 SE13G18   29.57F
VALPARAISO     LGT RAIN  50  49  96 E12       29.56F FOG

$$

LMZ046-743>745-240900-
SOUTHERN LAKE MICHIGAN

STATION/POSITION TIME  TEMP    WIND        PRES    WAVE
                       AIR SEA DIR/SP/G            HT
                 (UTC) (F)     (DEG/KT/KT) (MB)    (FT)
BURNS HARBOR     0740   38      10/  4/  5 1002.4F
MICHIGAN CITY    0740   51     130/  8/ 11   N/A

$$

INZ004-005-014>016-021>024-240900-
NORTH CENTRAL INDIANA

CITY           SKY/WX    TMP DP  RH WIND       PRES   REMARKS
GOSHEN         LGT RAIN  53  49  86 E6        29.62F
LOGANSPORT +   CLOUDY    57  54  88 S13       29.63F
PERU/GRISSOM   CLOUDY    58  58 100 S12       29.62F
ROCHESTER +    PTCLDY    59  55  88 SE9       29.62F
SOUTH BEND     LGT RAIN  49  47  93 E6        29.62F
WARSAW +       LGT RAIN  55  54  94 SE9       29.62F

$$

INZ006>009-017-018-025>027-240900-
NORTHEAST INDIANA

CITY           SKY/WX    TMP DP  RH WIND       PRES   REMARKS
ANGOLA *+      CLOUDY    43  43 100 E10       29.68F
AUBURN +       CLOUDY    45  43  93 E7        29.69F
FORT WAYNE     MOCLDY    52  49  89 E10       29.68S FOG
HUNTINGTON +   CLOUDY    55  54  95 SE7       29.66F
KENDALLVILLE + LGT RAIN  46  45  97 SE12G21   29.66F

$$

INZ028-029-035-036-043>045-051>053-240900-
WEST CENTRAL INDIANA

CITY           SKY/WX    TMP DP  RH WIND       PRES   REMARKS
LAFAYETTE      CLEAR     58  54  86 SE7       29.59F
TERRE HAUTE    CLOUDY    63  54  72 S20G25    29.60F

$$

INZ030>032-037>040-046>048-054>057-064-065-240900-
CENTRAL INDIANA

CITY           SKY/WX    TMP DP  RH WIND       PRES   REMARKS
CP ATTERBURY + PTCLDY    59  54  82 S8        29.66F
FRANKFORT +    PTCLDY    59  55  88 S9        29.64F
GREENWOOD *+   PTCLDY    58  55  90 SE7       29.65F
INDIANAPOLIS   MOCLDY    58  53  84 SE7       29.64S
-EAGLE CREEK   CLOUDY    60  53  77 SE5       29.64S
KOKOMO +       CLOUDY    59  55  87 S13       29.65F
MARION +       CLOUDY    57  54  88 SE8       29.67F
MT COMFORT *+  MOCLDY    59  54  82 S8        29.66F
SHELBYVILLE    CLEAR     60  53  77 SE13      29.65F
ZIONSVILLE +   CLOUDY    59  54  83 S8        29.65F

$$

INZ033-034-041-042-049-050-058-059-240900-
EAST CENTRAL INDIANA

CITY           SKY/WX    TMP DP  RH WIND       PRES   REMARKS
MUNCIE         CLOUDY    60  54  80 S9        29.67F

$$

INZ060-061-067>069-081>083-085>088-240900-
SOUTHWEST INDIANA

CITY           SKY/WX    TMP DP  RH WIND       PRES   REMARKS
EVANSVILLE     CLOUDY    64  54  69 S10       29.65S
HUNTINGBURG *+ CLOUDY    63  55  75 S10       29.66F
WASHINGTON +   CLOUDY    64  53  68 S14G23    29.64R

$$

INZ062-063-066-070>080-084-089>092-240900-
SOUTH CENTRAL AND SOUTHEAST INDIANA

CITY           SKY/WX    TMP DP  RH WIND       PRES   REMARKS
BEDFORD +      CLOUDY    63  52  67 S8        29.66F
BLOOMINGTON    CLOUDY    63  53  70 SW12      29.65R
MADISON *+     PTCLDY    61  52  72 SE8       29.72F
NORTH VERNON + MOCLDY    63  55  77 SE8       29.70F
SEYMOUR +      PTCLDY    61  54  77 S12       29.68F

$$





USA.gov is the U.S. government's official web portal to all federal, state and local government web resources and services.